Regional Weather Roundup
Issued by NWS

Home | Current Version | Previous Version | Graphics & Text | Print | Product List | Glossary On
Versions: 1 2 3 4 5 6 7 8 9 10 11 12 13 14 15 16 17 18 19 20 21 22 23 24 25 26 27 28 29 30 31 32 33 34 35 36 37 38 39 40 41 42 43 44 45 46 47 48 49 50
000
ASUS43 KMPX 231410
RWRMN
WEATHER ROUNDUP FOR MINNESOTA
NATIONAL WEATHER SERVICE TWIN CITIES/CHANHASSEN MN
800 AM CST THU FEB 23 2017


NOTE: "FAIR" INDICATES FEW OR NO CLOUDS BELOW 12,000 FEET WITH NO
SIGNIFICANT WEATHER AND/OR OBSTRUCTIONS TO VISIBILITY. N/A MEANS
CURRENT SKY AND/OR WEATHER CONDITIONS ARE NOT AVAILABLE.

MNZ060>063-068>070-231500-
   Twin Cities Metro

CITY           SKY/WX    TMP DP  RH WIND       PRES   REMARKS
TWIN CITIES    CLOUDY    32  24  72 N10       29.91R WCI  24
ST PAUL        CLOUDY    32  26  78 N12       29.93R WCI  23
CRYSTAL        CLOUDY    29  23  78 N8        29.90R WCI  21
BLAINE         MOCLDY    30  27  86 N10       29.90F WCI  21
LAKEVILLE      CLOUDY    30  27  86 N9        29.90R WCI  22
EDEN PRAIRIE   PTCLDY    31  25  78 N9        29.90R WCI  23
SOUTH ST PAUL  CLOUDY    32  27  80 N10G17    29.91R WCI  24
LAKE ELMO      CLOUDY    32  28  86 N9        29.91R WCI  24
$$
MNZ001>005-007-008-013>017-022>024-027-028-231500-
   Northwest Minnesota

CITY           SKY/WX    TMP DP  RH WIND       PRES   REMARKS
BEMIDJI        CLOUDY    23  17  77 NW12      29.99R WCI  12
HALLOCK        CLOUDY    27  21  80 N8        30.08R WCI  18
ROSEAU         CLOUDY    23  16  74 N9        30.06R WCI  13
WARROAD        CLOUDY    21  12  68 NW9       30.05R WCI  11
THIEF RVR FALL CLOUDY    25  20  81 N7        30.05S WCI  17
CROOKSTON      CLOUDY    28  21  74 N7        30.06R WCI  21
FOSSTON        CLOUDY    23  19  86 N14       30.02S WCI  11
DETROIT LAKES  CLEAR     27  21  80 N6        30.00R WCI  20
MOORHEAD       CLOUDY    28  21  74 N12       30.03R WCI  18
PARK RAPIDS    CLOUDY    24  16  71 N9        29.97R WCI  14
MAHNOMEN       CLOUDY    25  20  79 N13       30.00S WCI  14
$$
MNZ006-009>011-018-025>026-231500-
   North Central Minnesota

CITY           SKY/WX    TMP DP  RH WIND       PRES   REMARKS
BAUDETTE       CLOUDY    20  12  71 N13       30.02R WCI   7
FLAG ISLAND    CLOUDY    18   9  68 N13       30.04R WCI   4
INTL FALLS     CLOUDY    23  14  68 NW12      29.98R WCI  12
WASKISH        CLOUDY    21  16  79 NW6       30.02R WCI  14
BIG FORK       CLOUDY    23  18  80 NW5       29.97R WCI  17
LONGVILLE      CLOUDY    23  19  86 N3        29.97R
GRAND RAPIDS   CLOUDY    22  18  85 N10       29.97S WCI  11
CRANE LAKE     CLOUDY    25  16  68 CALM      29.96R
ORR            CLOUDY    25  16  68 NW7       29.93R WCI  17
COOK           CLOUDY    23  18  80 NW3       29.95R
WALKER         CLOUDY    23  18  82 NW8       29.98R WCI  14
$$
MNZ012-019>021-037-231500-
   Northeast Minnesota

CITY           SKY/WX    TMP DP  RH WIND       PRES   REMARKS
DULUTH         CLOUDY    26  22  84 N10       29.90S WCI  16
ELY            CLOUDY    25  18  74 NW5       29.91R WCI  19
HIBBING        CLOUDY    22  19  89 N13       29.93S WCI  10
EVELETH        CLOUDY    23  18  80 N6        29.95R WCI  16
DULUTH HARBOR  CLOUDY    30  25  80 NW9       29.95R WCI  22
TWO HARBORS    CLOUDY    30  25  80 CALM      29.89F
SILVER BAY     CLOUDY    28  23  80 NW5       29.90R WCI  23
GRAND MARAIS     N/A     32  22  66 W6        29.91R WCI  26
G MARAIS ARPRT CLOUDY    25  14  63 W6        29.85R WCI  18
$$
MNZ029>031-032-039>041-046>048-054>057-064-231500-
   West Central Minnesota

CITY           SKY/WX    TMP DP  RH WIND       PRES   REMARKS
FERGUS FALLS   CLEAR     27  21  80 N12       30.01S WCI  16
WHEATON        PTCLDY    27  25  93 N10       30.01R WCI  17
MORRIS         PTCLDY    28  25  86 N15       29.95R WCI  17
ALEXANDRIA     PTCLDY    26  22  84 N15       29.94R WCI  14
ELBOW LAKE     FAIR      27  22  82 NE10G17   29.97R WCI  17
WADENA         PTCLDY    21  19  93 N12       29.95R WCI   9
GLENWOOD       CLEAR     27  23  86 N14G20    29.94R WCI  15
APPLETON       PTCLDY    30  27  86 N13       29.95S WCI  20
BENSON         MOCLDY    30  25  80 NE9       29.96R WCI  22
ORTONVILLE     CLOUDY    28  25  86 N15       29.96R WCI  17
MADISON        CLOUDY    32  30  93 N12       29.95S WCI  23
WILLMAR        FAIR      30  27  86 N9        29.95R WCI  22
$$
MNZ033>034-036-042>043-049>051-058-059-231500-
   Central Minnesota

CITY           SKY/WX    TMP DP  RH WIND       PRES   REMARKS
ST CLOUD       MOCLDY    26  23  88 N10       29.93R WCI  16
SAUK CENTRE    CLOUDY    26  22  86 N10       29.94R WCI  16
PAYNESVILLE    MOCLDY    28  24  86 N9G16     29.93R WCI  19
AITKIN         CLOUDY    25  18  74 N12G17    29.94R WCI  14
PINE RIVER     CLOUDY    23  19  86 N14       29.99R WCI  11
BRAINERD       CLOUDY    23  19  85 N13       29.95R WCI  11
STAPLES        CLOUDY    23  21  93 N10       29.96R WCI  12
LONG PRAIRIE   CLOUDY    27  23  86 NW12G17   29.93R WCI  16
LITTLE FALLS   CLOUDY    27  21  80 N6        29.95R WCI  20
LITCHFIELD     CLEAR     28  25  86 N6        29.93R WCI  22
BUFFALO        PTCLDY    28  24  85 N8        29.94R WCI  20
MAPLE LAKE     CLEAR     29  26  90 N8        29.93R WCI  21
HUTCHINSON     CLEAR     30  26  85 N8        29.93R WCI  23
$$
MNZ037-044-045-052-053-231500-
   East Central Minnesota

CITY           SKY/WX    TMP DP  RH WIND       PRES   REMARKS
PRINCETON      PTCLDY    28  25  86 N10       29.93S WCI  19
MORA           CLOUDY    27  23  86 N6        29.96R WCI  20
CAMBRIDGE      PTCLDY    28  21  74 N6        29.91S WCI  22
RUSH CITY      PTCLDY    27  23  86 VRB10     29.94R WCI  17
MOOSE LAKE     CLOUDY    25  21  86 N14       29.92R WCI  13
HINCKLEY       PTSUNNY   27  23  86 N8        29.94R WCI  18
CLOQUET        CLOUDY    25  21  86 N14G20    29.92S WCI  13
MCGREGOR       CLOUDY    23  21  93 N9        29.94S WCI  13
$$
MNZ071>073-080-081-089-090-097-098-231500-
   Southwest Minnesota

CITY           SKY/WX    TMP DP  RH WIND       PRES   REMARKS
MONTEVIDEO     CLOUDY    28  28 100 NE12      29.96R WCI  18
GRANITE FALLS  MOCLDY    32  28  84 N9        29.95S WCI  24
CANBY          CLOUDY    30  29  95 N9        29.95S WCI  22
MARSHALL       PTCLDY    30  27  88 N10       29.94R WCI  21
REDWOOD FALLS  CLOUDY    31  24  75 N7        29.92R WCI  24
OLIVIA         PTCLDY    30  27  86 N14       29.92R WCI  20
PIPESTONE      CLOUDY    30  23  74 NE15      29.89R WCI  19
WINDOM         PTCLDY    30  27  86 N13       29.89R WCI  20
WORTHINGTON    CLOUDY    29  26  89 N21       29.88R WCI  16
JACKSON          N/A     30  28  93 NE16      29.87R WCI  19
TRACY          CLOUDY    31  29  92 N12       29.91R WCI  21
SLAYTON        CLOUDY    28  27  93 N9G17     29.90R WCI  20
$$
MNZ065>067-074>077-082>085-091>093-231500-
   South Central Minnesota

CITY           SKY/WX    TMP DP  RH WIND       PRES   REMARKS
MANKATO          N/A     32  27  81 N9        29.90R WCI  24
NEW ULM        PTCLDY    30  25  80 N9        29.90S WCI  22
ST JAMES       CLOUDY    30  28  93 N10       29.91S WCI  21
FAIRMONT       CLOUDY    31  28  89 N10       29.88R WCI  22
GLENCOE        PTCLDY    31  28  90 N6        29.92R WCI  25
FARIBAULT      CLOUDY    34  28  80 N7        29.89R WCI  28
OWATONNA       CLOUDY    34  28  80 N8        29.89R WCI  27
WASECA         CLOUDY    32  30  93 N9        29.89R WCI  24
ALBERT LEA     CLOUDY    36  30  80 NE12      29.86R
$$
MNZ078>079-086>088-094>096-231500-
   Southeast Minnesota

CITY           SKY/WX    TMP DP  RH WIND       PRES   REMARKS
ROCHESTER      CLOUDY    34  31  88 N15       29.86R WCI  24
RED WING       CLOUDY    36  28  75 N6        29.88R
STANTON        CLOUDY    34  30  84 N9G16     29.89R WCI  27
DODGE CENTER   MOCLDY    34  30  86 N10       29.86R WCI  26
WINONA         CLOUDY    37  32  81 N8        29.88R
AUSTIN         CLOUDY    34  30  86 N8        29.86R WCI  27
PRESTON        CLOUDY    35  31  87 N9        29.84S WCI  27
$$
ABBREVIATIONS USED IN REMARKS
   TC - TEMPERATURES IN CELSIUS
  WCI - WIND CHILL INDEX
   HX - HEAT INDEX
  VSB - VISIBILITY
$$



USA.gov is the U.S. government's official web portal to all federal, state and local government web resources and services.